Location: Suiattle Valley
(48.3620°N, 121.4180°W)
Time: 07:52:58
(UTC-07:00)

Envisat - Visible Passes

Search period start: 22 July 2018 00:00
Search period end: 01 August 2018 00:00
Orbit: 764 x 766 km, 98.2° (Epoch: 22 July)

Date Brightness Start Highest point End Pass type
(mag) Time Alt. Az. Time Alt. Az. Time Alt. Az.
22 Jul 6.1 22:00:20 10° W 22:01:20 11° W 22:02:20 10° WNW visible
25 Jul 5.8 21:47:33 10° WSW 21:50:00 13° W 21:52:27 10° WNW visible
28 Jul 5.7 21:35:28 10° SW 21:38:41 17° W 21:41:55 10° NW visible
31 Jul 5.6 21:23:37 10° SW 21:27:22 21° W 21:31:10 10° NW visible
